Regional Weather Roundup
Issued by NWS

Home | Current Version | Previous Version | Graphics & Text | Print | Product List | Glossary On
Versions: 1 2 3 4 5 6 7 8 9 10 11 12 13 14 15 16 17 18 19 20 21 22 23 24 25 26 27 28 29 30 31 32 33 34 35 36 37 38 39 40 41 42 43 44 45 46 47 48 49 50
000
ASUS43 KBIS 302210
RWRND

NORTH DAKOTA REGIONAL WEATHER ROUNDUP
NATIONAL WEATHER SERVICE BISMARCK ND
500 PM CDT SUN AUG 30 2015

NOTE: "FAIR" INDICATES FEW OR NO CLOUDS BELOW 12,000 FEET WITH NO
SIGNIFICANT WEATHER AND/OR OBSTRUCTIONS TO VISIBILITY.


NDZ001>003-009>011-017-302300-
NORTHWEST NORTH DAKOTA

CITY           SKY/WX    TMP DP  RH WIND       PRES   REMARKS
WILLISTON      MOSUNNY   85  44  23 N17       29.72R
MINOT          CLOUDY    88  55  32 W8        29.62F
MINOT AFB      CLOUDY    91  55  28 NW10      29.62F
$$

NDZ018>021-031>035-040>046-302300-
SOUTHWEST NORTH DAKOTA

CITY           SKY/WX    TMP DP  RH WIND       PRES   REMARKS
BISMARCK       MOSUNNY   97  58  27 S10       29.65F HX  96
GARRISON         N/A     90  53  28 NW9       29.65F
HETTINGER ARPT PTSUNNY   96  46  18 N14       29.74R HX  92
$$

NDZ004>008-012>016-024-026-027-054-302300-
NORTHEAST NORTH DAKOTA

CITY           SKY/WX    TMP DP  RH WIND       PRES   REMARKS
GRAND FORKS    PTSUNNY   86  68  54 S22G29    29.67S
GRND FRKS AFB  MOSUNNY   86  70  58 S21G28    29.67F HX  91
DEVILS LAKE    PTSUNNY   88  66  48 SE17      29.63F HX  90
$$

NDZ022-023-025-028>030-036>039-047>053-302300-
SOUTHEAST NORTH DAKOTA

CITY           SKY/WX    TMP DP  RH WIND       PRES   REMARKS
FARGO          MOSUNNY   87  67  51 S17G29    29.73F HX  90
JAMESTOWN      PTSUNNY   84  68  58 S16G24    29.69F
$$



USA.gov is the U.S. government's official web portal to all federal, state and local government web resources and services.